Meteo orario Abaeté

Oggi, 28 Febbraio, Domenica

Tempo Temperatura Precipitazioni Vento Pressione Umidità
00:00 +21°C° 0 mm 1 m/s 706 mm Hg 94%
01:00 +21°C° 0 mm 1 m/s 705 mm Hg 94%
02:00 +21°C° 0 mm 1 m/s 705 mm Hg 95%
03:00 +21°C° 0 mm 1 m/s 705 mm Hg 95%
04:00 +21°C° 0 mm 1 m/s 705 mm Hg 95%
05:00 +20°C° 0 mm 1 m/s 705 mm Hg 96%
06:00 +20°C° 0 mm 1 m/s 705 mm Hg 96%
07:00 +22°C° 0.1 mm 1 m/s 706 mm Hg 92%
08:00 +23°C° 0.1 mm 1 m/s 707 mm Hg 88%
09:00 +24°C° 0.1 mm 2 m/s 707 mm Hg 84%
10:00 +25°C° 0.4 mm 2 m/s 707 mm Hg 78%
11:00 +27°C° 0.4 mm 3 m/s 707 mm Hg 72%
12:00 +28°C° 0.4 mm 3 m/s 707 mm Hg 67%
13:00 +28°C° 0.1 mm 3 m/s 706 mm Hg 66%
14:00 +28°C° 0.1 mm 3 m/s 706 mm Hg 65%
15:00 +29°C° 0.1 mm 3 m/s 705 mm Hg 64%
16:00 +27°C° 0.1 mm 2 m/s 705 mm Hg 71%
17:00 +26°C° 0.1 mm 2 m/s 705 mm Hg 77%
18:00 +25°C° 0.1 mm 2 m/s 704 mm Hg 84%
19:00 +24°C° 0.3 mm 1 m/s 705 mm Hg 86%
20:00 +23°C° 0.3 mm 1 m/s 705 mm Hg 88%
21:00 +23°C° 0.3 mm 1 m/s 705 mm Hg 90%
22:00 +22°C° 0.3 mm 1 m/s 705 mm Hg 91%
23:00 +22°C° 0.3 mm 1 m/s 705 mm Hg 93%

Domani, 1 Marzo, Lunedi

Tempo Temperatura Precipitazioni Vento Pressione Umidità
00:00 +21°C° 0.3 mm 1 m/s 706 mm Hg 94%
01:00 +21°C° 0 mm 1 m/s 705 mm Hg 94%
02:00 +21°C° 0 mm 1 m/s 705 mm Hg 95%
03:00 +20°C° 0 mm 1 m/s 705 mm Hg 95%
04:00 +20°C° 0 mm 1 m/s 705 mm Hg 95%
05:00 +20°C° 0 mm 1 m/s 705 mm Hg 96%
06:00 +20°C° 0 mm 1 m/s 705 mm Hg 96%
07:00 +20°C° 0 mm 2 m/s 706 mm Hg 91%
08:00 +23°C° 0 mm 2 m/s 706 mm Hg 87%
09:00 +24°C° 0 mm 3 m/s 707 mm Hg 82%
10:00 +25°C° 0 mm 3 m/s 707 mm Hg 76%
11:00 +27°C° 0 mm 3 m/s 707 mm Hg 70%
12:00 +28°C° 0 mm 3 m/s 707 mm Hg 64%
13:00 +28°C° 0 mm 3 m/s 706 mm Hg 63%
14:00 +29°C° 0 mm 3 m/s 706 mm Hg 62%
15:00 +29°C° 0 mm 3 m/s 705 mm Hg 60%
16:00 +28°C° 0 mm 2 m/s 705 mm Hg 65%
17:00 +27°C° 0 mm 2 m/s 704 mm Hg 70%
18:00 +26°C° 0 mm 1 m/s 704 mm Hg 75%
19:00 +25°C° 0 mm 2 m/s 705 mm Hg 79%
20:00 +24°C° 0 mm 2 m/s 705 mm Hg 82%
21:00 +23°C° 0 mm 2 m/s 705 mm Hg 86%
22:00 +21°C° 0 mm 2 m/s 706 mm Hg 87%
23:00 +21°C° 0 mm 2 m/s 706 mm Hg 87%

Dopodomani, 2 Marzo, Martedi

Tempo Temperatura Precipitazioni Vento Pressione Umidità
00:00 +20°C° 0 mm 2 m/s 706 mm Hg 88%
01:00 +21°C° 0 mm 1 m/s 706 mm Hg 89%
02:00 +21°C° 0 mm 1 m/s 705 mm Hg 89%
03:00 +21°C° 0 mm 1 m/s 705 mm Hg 90%
04:00 +21°C° 0 mm 1 m/s 706 mm Hg 91%
05:00 +20°C° 0 mm 1 m/s 706 mm Hg 92%
06:00 +20°C° 0 mm 1 m/s 706 mm Hg 93%
07:00 +21°C° 0 mm 1 m/s 707 mm Hg 88%
08:00 +23°C° 0 mm 2 m/s 707 mm Hg 83%
09:00 +24°C° 0 mm 2 m/s 708 mm Hg 77%
10:00 +26°C° 0 mm 2 m/s 708 mm Hg 70%
11:00 +27°C° 0 mm 3 m/s 708 mm Hg 63%
12:00 +28°C° 0 mm 3 m/s 708 mm Hg 56%
13:00 +28°C° 0 mm 3 m/s 707 mm Hg 55%
14:00 +29°C° 0 mm 3 m/s 707 mm Hg 54%
15:00 +29°C° 0 mm 3 m/s 706 mm Hg 52%
16:00 +28°C° 0 mm 2 m/s 706 mm Hg 58%
17:00 +26°C° 0 mm 1 m/s 706 mm Hg 64%
18:00 +25°C° 0 mm 1 m/s 705 mm Hg 70%
19:00 +24°C° 0 mm 1 m/s 706 mm Hg 72%
20:00 +23°C° 0 mm 1 m/s 706 mm Hg 75%
21:00 +22°C° 0 mm 1 m/s 707 mm Hg 78%
22:00 +22°C° 0 mm 1 m/s 707 mm Hg 81%
23:00 +22°C° 0 mm 1 m/s 707 mm Hg 84%

3 Marzo, Mercoledi

Tempo Temperatura Precipitazioni Vento Pressione Umidità
00:00 +19°C° 0 mm 0 m/s 707 mm Hg 86%
01:00 +19°C° 0 mm 0 m/s 707 mm Hg 88%
02:00 +19°C° 0 mm 0 m/s 707 mm Hg 89%
03:00 +19°C° 0 mm 0 m/s 707 mm Hg 91%
04:00 +18°C° 0 mm 0 m/s 707 mm Hg 92%
05:00 +18°C° 0 mm 0 m/s 707 mm Hg 93%
06:00 +20°C° 0 mm 1 m/s 708 mm Hg 95%
07:00 +22°C° 0 mm 1 m/s 708 mm Hg 89%
08:00 +23°C° 0 mm 1 m/s 709 mm Hg 84%
09:00 +25°C° 0 mm 2 m/s 709 mm Hg 79%
10:00 +26°C° 0 mm 2 m/s 709 mm Hg 72%
11:00 +28°C° 0 mm 2 m/s 709 mm Hg 65%
12:00 +29°C° 0 mm 2 m/s 709 mm Hg 58%
13:00 +29°C° 0 mm 2 m/s 709 mm Hg 56%
14:00 +30°C° 0 mm 2 m/s 708 mm Hg 54%
15:00 +30°C° 0 mm 2 m/s 707 mm Hg 52%
16:00 +28°C° 0 mm 2 m/s 707 mm Hg 57%
17:00 +27°C° 0 mm 1 m/s 706 mm Hg 63%
18:00 +26°C° 0 mm 1 m/s 706 mm Hg 68%
19:00 +25°C° 0 mm 1 m/s 706 mm Hg 69%
20:00 +23°C° 0 mm 1 m/s 707 mm Hg 69%
21:00 +20°C° 0 mm 0 m/s 707 mm Hg 69%
22:00 +20°C° 0 mm 0 m/s 708 mm Hg 71%
23:00 +20°C° 0 mm 0 m/s 708 mm Hg 74%

4 Marzo, Giovedi

Tempo Temperatura Precipitazioni Vento Pressione Umidità
00:00 +19°C° 0 mm 0 m/s 708 mm Hg 76%
01:00 +19°C° 0 mm 0 m/s 707 mm Hg 78%
02:00 +18°C° 0 mm 0 m/s 707 mm Hg 80%
03:00 +18°C° 0 mm 0 m/s 707 mm Hg 81%
04:00 +18°C° 0 mm 0 m/s 707 mm Hg 83%
05:00 +18°C° 0 mm 0 m/s 707 mm Hg 85%
06:00 +17°C° 0 mm 0 m/s 707 mm Hg 87%
07:00 +19°C° 0 mm 0 m/s 707 mm Hg 81%
08:00 +22°C° 0 mm 0 m/s 708 mm Hg 76%
09:00 +24°C° 0 mm 0 m/s 709 mm Hg 70%
10:00 +27°C° 0 mm 1 m/s 708 mm Hg 65%
11:00 +28°C° 0 mm 2 m/s 708 mm Hg 59%
12:00 +29°C° 0 mm 2 m/s 708 mm Hg 54%
13:00 +30°C° 0 mm 2 m/s 707 mm Hg 52%
14:00 +30°C° 0 mm 2 m/s 707 mm Hg 50%
15:00 +30°C° 0 mm 1 m/s 706 mm Hg 48%
16:00 +29°C° 0 mm 1 m/s 706 mm Hg 54%
17:00 +28°C° 0 mm 1 m/s 705 mm Hg 60%
18:00 +24°C° 0 mm 0 m/s 705 mm Hg 67%
19:00 +23°C° 0 mm 0 m/s 705 mm Hg 68%
20:00 +22°C° 0 mm 0 m/s 706 mm Hg 70%
21:00 +21°C° 0 mm 0 m/s 706 mm Hg 71%
22:00 +21°C° 0 mm 0 m/s 706 mm Hg 72%
23:00 +20°C° 0 mm 0 m/s 706 mm Hg 73%

5 Marzo, Venerdi

Tempo Temperatura Precipitazioni Vento Pressione Umidità
00:00 +20°C° 0 mm 0 m/s 706 mm Hg 74%
01:00 +19°C° 0 mm 0 m/s 706 mm Hg 76%
02:00 +19°C° 0 mm 0 m/s 705 mm Hg 78%
03:00 +19°C° 0 mm 0 m/s 705 mm Hg 80%
04:00 +18°C° 0 mm 0 m/s 705 mm Hg 81%
05:00 +18°C° 0 mm 0 m/s 705 mm Hg 82%
06:00 +18°C° 0 mm 0 m/s 705 mm Hg 84%
07:00 +20°C° 0 mm 0 m/s 706 mm Hg 79%
08:00 +22°C° 0 mm 0 m/s 706 mm Hg 74%
09:00 +24°C° 0 mm 0 m/s 707 mm Hg 70%
10:00 +27°C° 0 mm 1 m/s 707 mm Hg 65%
11:00 +28°C° 0 mm 1 m/s 707 mm Hg 61%
12:00 +29°C° 0 mm 2 m/s 707 mm Hg 57%
13:00 +29°C° 0 mm 2 m/s 706 mm Hg 58%
14:00 +29°C° 0 mm 1 m/s 706 mm Hg 59%
15:00 +29°C° 0 mm 1 m/s 705 mm Hg 60%
16:00 +28°C° 0 mm 1 m/s 705 mm Hg 63%
17:00 +27°C° 0 mm 1 m/s 704 mm Hg 67%
18:00 +24°C° 0 mm 0 m/s 704 mm Hg 71%
19:00 +23°C° 0 mm 0 m/s 704 mm Hg 72%
20:00 +22°C° 0 mm 0 m/s 705 mm Hg 73%
21:00 +22°C° 0 mm 0 m/s 705 mm Hg 75%
22:00 +21°C° 0.1 mm 0 m/s 705 mm Hg 77%
23:00 +21°C° 0.1 mm 0 m/s 705 mm Hg 80%
Mostrare altro

Abbiamo bisogno del tuo consenso

Meteoprog e i nostri fornitori di servizi possono memorizzare e accedere a dati personali come cookie, identificatori di dispositivi o altre tecnologie simili sul tuo dispositivo e possono elaborare tali dati per personalizzare i contenuti e gli annunci, nonché fornire funzionalità dei social media e analizzarne il traffico.

  • Archiviare e/o accedere alle informazioni sul tuo dispositivo

    Cookie, identificatori di dispositivi o altre informazioni possono essere memorizzati o resi accessibili sul tuo dispositivo per le finalità sopra indicate.

  • Annunci e contenuti personalizzati, misurazione di annunci e contenuti, approfondimenti sul pubblico e sviluppo di prodotti

    Gli annunci e i contenuti possono essere personalizzati in base a un profilo. È possibile aggiungere più dati per personalizzare meglio annunci e contenuti. È possibile misurare il rendimento degli annunci e dei contenuti. È possibile ricavare informazioni sul pubblico che ha visto gli annunci e i contenuti. Tali dati possono essere utilizzati per sviluppare o migliorare l'esperienza, i sistemi e il software dell'utente.

Cliccando su “Accetto”, acconsenti all'uso di cookie, identificatori di dispositivo, web beacon o altre tecnologie simili. Puoi modificare le impostazioni nel browser del tuo dispositivo.

Per determinati scopi, è possibile fare affidamento su interessi legali, piuttosto che sul consenso. Puoi approfondire questo argomento consultando la nostra Informativa sulla privacy e sui cookie.